Vlieland, Netherlands

1:23 PM CET on January 18, 2017 (GMT +0100)
Vlieland

Weather History for EHVL - February, 2014

Change the Weather History Date:

Friday, February 7, 2014

  Actual Average Record
Temperature  
Mean Temperature 44 °F -  
Max Temperature 47 °F 42 °F 50 °F (2001)
Min Temperature 41 °F 36 °F 12 °F (2012)
Degree Days  
Heating Degree Days 21    
Moisture  
Dew Point 41 °F    
Average Humidity 89    
Maximum Humidity 100    
Minimum Humidity 74    
Precipitation  
Precipitation 0.00 in - - ()
Sea Level Pressure  
Sea Level Pressure 29.13 in    
Wind  
Wind Speed 23 mph ()    
Max Wind Speed 31 mph    
Max Gust Speed 39 mph    
Visibility 6.2 miles    
Events Rain    
Averages and records for this station are not official NWS values.
T = Trace of Precipitation, MM = Missing Value Source: Averaged Metar Reports

Daily Weather History Graph

Daily Weather History Graph

Search for Another Location

Airport or City:

Trip Planner

Search our weather history database for the weather conditions in past years. The results will help you decide how hot, cold, wet, or windy it might be!

Date:

Astronomy

Feb. 07, 2014 Rise Set
Actual Time 8:14 AM CET 5:35 PM CET
Civil Twilight 7:37 AM CET 6:12 PM CET
Nautical Twilight 6:55 AM CET 6:53 PM CET
Astronomical Twilight 6:15 AM CET 7:34 PM CET
Moon 11:28 AM CET (2/7) 2:20 AM CET (2/7)
Length of Visible Light 10h 35m
Length of Day
9h 21m
First Quarter, 56% of the Moon is Illuminated
Feb 7
First Quarter
Feb 15
Full
Feb 22
Last Quarter
Mar 1
New
Mar 8
First Quarter

Hourly Weather History & Observations

Time (CET) Temp. Windchill Dew Point Humidity Pressure Visibility Wind Dir Wind Speed Gust Speed Precip Events Conditions
12:00 AM 42 °F - 41 °F 97% 29.13 in 4 mi SSE 29.1 mph - - Rain Light Rain
12:16 AM 42.8 °F 32.9 °F 41.0 °F 93% 29.12 in 5.0 mi South 26.5 mph - N/A Rain Light Rain
12:25 AM 42.8 °F 32.7 °F 41.0 °F 93% 29.09 in 5.0 mi SSE 27.6 mph - N/A Rain Light Rain
12:45 AM 42.8 °F 32.9 °F 41.0 °F 93% 29.09 in 4.3 mi SSE 26.5 mph - N/A Rain Light Rain
12:55 AM 42.8 °F 33.1 °F 41.0 °F 93% 29.09 in 5.6 mi South 25.3 mph - N/A Rain Light Rain Showers
1:00 AM 43 °F - 42 °F 92% 29.11 in 5 mi SSE 26.8 mph - - Rain Rain
1:25 AM 42.8 °F 33.1 °F 41.0 °F 93% 29.09 in 5.6 mi SSE 25.3 mph - N/A Rain Light Rain
1:49 AM 42.8 °F 33.5 °F 41.0 °F 93% 29.09 in 3.7 mi SSE 23.0 mph - N/A Rain Rain
1:55 AM 42.8 °F 33.8 °F 41.0 °F 93% 29.09 in 4.3 mi South 21.9 mph - N/A   Light Drizzle
2:00 AM 43 °F - 42 °F 93% 29.09 in 5 mi South 22.4 mph - - Rain Heavy Rain
2:09 AM 42.8 °F 33.5 °F 42.8 °F 100% 29.06 in 4.3 mi South 23.0 mph - N/A   Drizzle
2:13 AM 42.8 °F 33.5 °F 42.8 °F 100% 29.06 in - South 23.0 mph - N/A   Drizzle
2:25 AM 42.8 °F 34.0 °F 42.8 °F 100% 29.06 in 3.1 mi South 20.7 mph - N/A Rain Light Rain
2:31 AM 42.8 °F 34.0 °F 42.8 °F 100% 29.06 in 3.7 mi South 20.7 mph - N/A Rain Light Rain
2:36 AM 42.8 °F 34.0 °F 42.8 °F 100% 29.06 in 6.2 mi South 20.7 mph - N/A   Partly Cloudy
2:42 AM 42.8 °F 34.0 °F 42.8 °F 100% 29.06 in 6.2 mi South 20.7 mph - N/A   Mostly Cloudy
2:46 AM 42.8 °F 34.0 °F 42.8 °F 100% 29.06 in 6.2 mi South 20.7 mph - N/A   Mostly Cloudy
2:50 AM 44.6 °F 36.4 °F 42.8 °F 93% 29.06 in 6.2 mi South 20.7 mph - N/A   Mostly Cloudy
2:55 AM 44.6 °F 36.4 °F 42.8 °F 93% 29.06 in 6.2 mi South 20.7 mph - N/A   Overcast
3:00 AM 44 °F - 43 °F 95% 29.07 in 12 mi South 20.1 mph - - Rain Rain
3:08 AM 44.6 °F 36.4 °F 42.8 °F 93% 29.06 in 6.2 mi South 20.7 mph - N/A   Overcast
3:25 AM 44.6 °F 36.6 °F 42.8 °F 93% 29.03 in 6.2 mi South 19.6 mph - N/A   Light Drizzle
3:55 AM 46.4 °F 37.5 °F 42.8 °F 87% 29.03 in 6.2 mi South 27.6 mph 39.1 mph N/A Rain Light Rain
4:00 AM 46 °F - 44 °F 89% 29.04 in 10 mi South 26.8 mph - - Rain Light Rain Showers
4:25 AM 44.6 °F 36.1 °F 42.8 °F 93% 29.00 in 6.2 mi South 21.9 mph - N/A Rain Drizzle
4:55 AM 44.6 °F 36.1 °F 42.8 °F 93% 29.00 in 6.2 mi South 21.9 mph - N/A Rain Light Rain
5:00 AM 45 °F - 44 °F 92% 29.01 in 8 mi South 20.1 mph - - Rain Light Drizzle
5:25 AM 44.6 °F 36.6 °F 42.8 °F 93% 29.00 in 6.2 mi South 19.6 mph - N/A Rain Light Rain
5:55 AM 44.6 °F 35.9 °F 42.8 °F 93% 28.97 in 6.2 mi South 23.0 mph - N/A Rain Light Rain
6:00 AM 44 °F - 43 °F 95% 29.00 in 7 mi SSE 24.6 mph - - Rain Light Rain
6:25 AM 42.8 °F 33.1 °F 42.8 °F 100% 28.97 in 6.2 mi SSE 25.3 mph - N/A   Overcast
6:55 AM 42.8 °F 33.3 °F 42.8 °F 100% 28.97 in 6.2 mi SSE 24.2 mph - N/A Rain Light Rain
7:00 AM 44 °F - 43 °F 94% 28.98 in 6 mi SSE 22.4 mph - - Rain Light Rain Showers
7:25 AM 44.6 °F 36.1 °F 42.8 °F 93% 28.97 in 6.2 mi South 21.9 mph - N/A   Overcast
7:31 AM 44.6 °F 36.4 °F 42.8 °F 93% 28.97 in 3.7 mi South 20.7 mph - N/A Rain Light Rain
7:38 AM 44.6 °F 36.6 °F 42.8 °F 93% 28.97 in 5.0 mi South 19.6 mph - N/A Rain Light Rain
7:44 AM 44.6 °F 36.9 °F 42.8 °F 93% 28.97 in 3.7 mi South 18.4 mph - N/A Rain Light Rain Showers
7:48 AM 44.6 °F 36.9 °F 42.8 °F 93% 28.97 in 5.0 mi South 18.4 mph - N/A Rain Light Rain Showers
7:55 AM 44.6 °F 37.4 °F 44.6 °F 100% 28.97 in 6.2 mi South 16.1 mph - N/A   Mostly Cloudy
8:00 AM 45 °F - 44 °F 94% 28.98 in 8 mi SSE 15.7 mph - - Rain Rain
8:09 AM 44.6 °F 37.2 °F 42.8 °F 93% 28.97 in 6.2 mi SSE 17.3 mph - N/A   Mostly Cloudy
8:18 AM 44.6 °F 35.7 °F 42.8 °F 93% 28.94 in 3.7 mi SSE 24.2 mph - N/A Rain Light Rain
8:25 AM 44.6 °F 35.7 °F 42.8 °F 93% 28.94 in 4.3 mi SSE 24.2 mph - N/A Rain Light Rain Showers
8:29 AM 44.6 °F 36.1 °F 42.8 °F 93% 28.94 in 6.2 mi SSE 21.9 mph - N/A Rain Light Rain
8:42 AM 44.6 °F 35.9 °F 42.8 °F 93% 28.94 in 6.2 mi SSE 23.0 mph - N/A Rain Light Rain
8:55 AM 44.6 °F 35.9 °F 42.8 °F 93% 28.94 in 6.2 mi SSE 23.0 mph - N/A   Overcast
9:00 AM 44 °F - 43 °F 94% 28.96 in 14 mi SSE 22.4 mph - - Rain Rain
9:25 AM 44.6 °F 36.4 °F 42.8 °F 93% 28.94 in 6.2 mi SSE 20.7 mph - N/A   Mostly Cloudy
9:55 AM 44.6 °F 36.9 °F 42.8 °F 93% 28.94 in 6.2 mi South 18.4 mph - N/A   Mostly Cloudy
10:00 AM 45 °F - 44 °F 92% 28.95 in 19 mi South 15.7 mph - - Rain Drizzle
10:25 AM 46.4 °F 40.1 °F 44.6 °F 93% 28.94 in 6.2 mi South 15.0 mph - N/A   Overcast
10:55 AM 46.4 °F 39.2 °F 44.6 °F 93% 28.94 in 6.2 mi South 18.4 mph - N/A   Mostly Cloudy
11:00 AM 47 °F - 44 °F 86% 28.95 in 25 mi South 17.9 mph - - Rain Rain
11:13 AM 46.4 °F 39.5 °F 44.6 °F 93% 28.94 in 6.2 mi South 17.3 mph - N/A   Mostly Cloudy
11:17 AM 46.4 °F 39.5 °F 44.6 °F 93% 28.94 in 6.2 mi South 17.3 mph - N/A   Overcast
11:25 AM 46.4 °F 39.5 °F 44.6 °F 93% 28.94 in 6.2 mi South 17.3 mph - N/A   Overcast
11:26 AM 46.4 °F 39.8 °F 44.6 °F 93% 28.94 in 6.2 mi South 16.1 mph - N/A   Overcast
11:33 AM 46.4 °F 39.8 °F 44.6 °F 93% 28.94 in 6.2 mi South 16.1 mph - N/A   Overcast
11:55 AM 46.4 °F 40.4 °F 44.6 °F 93% 28.94 in 6.2 mi South 13.8 mph - N/A   Overcast
12:00 PM 46 °F - 45 °F 94% 28.97 in 10 mi South 15.7 mph - - Rain Drizzle
12:25 PM 48.2 °F - 46.4 °F 93% 28.97 in 6.2 mi SW 25.3 mph - N/A   Overcast
12:39 PM 46.4 °F 38.5 °F 44.6 °F 93% 28.97 in 6.2 mi SW 21.9 mph - N/A   Overcast
12:43 PM 46.4 °F 37.5 °F 44.6 °F 93% 28.97 in 6.2 mi NW 27.6 mph - N/A   Overcast
12:47 PM 44.6 °F 35.1 °F 42.8 °F 93% 28.97 in 6.2 mi NW 27.6 mph - N/A   Overcast
12:55 PM 44.6 °F 35.1 °F 42.8 °F 93% 29.00 in 6.2 mi NW 27.6 mph - N/A   Overcast
12:59 PM 44.6 °F 35.1 °F 42.8 °F 93% 29.00 in 6.2 mi NW 27.6 mph - N/A   Mostly Cloudy
1:00 PM 44 °F - 42 °F 91% 29.03 in 9 mi NW 26.8 mph - -   Partly Cloudy
1:25 PM 44.6 °F 35.1 °F 41.0 °F 87% 29.03 in 6.2 mi NW 27.6 mph - N/A Rain Light Rain
1:27 PM 42.8 °F 32.7 °F 41.0 °F 93% 29.03 in 3.7 mi NW 27.6 mph - N/A Rain Light Rain
1:40 PM 42.8 °F 32.9 °F 41.0 °F 93% 29.03 in 5.6 mi NW 26.5 mph - N/A Rain Light Rain
1:45 PM 42.8 °F 32.9 °F 41.0 °F 93% 29.06 in 5.6 mi NW 26.5 mph - N/A Rain Light Rain
1:49 PM 42.8 °F 32.5 °F 41.0 °F 93% 29.06 in 5.6 mi NW 28.8 mph - N/A Rain Light Rain
1:55 PM 42.8 °F 32.3 °F 41.0 °F 93% 29.06 in 5.0 mi NW 29.9 mph - N/A Rain Light Rain
2:00 PM 43 °F - 41 °F 89% 29.09 in 5 mi NW 29.1 mph - - Rain Light Rain Showers
2:08 PM 42.8 °F 32.5 °F 41.0 °F 93% 29.09 in 5.0 mi NW 28.8 mph - N/A Rain Light Rain
2:14 PM 42.8 °F 32.3 °F 41.0 °F 93% 29.09 in 5.0 mi WNW 29.9 mph - N/A Rain Light Rain Showers
2:25 PM 42.8 °F 32.3 °F 41.0 °F 93% 29.09 in 6.2 mi NW 29.9 mph - N/A Rain Light Rain
2:29 PM 42.8 °F 32.5 °F 41.0 °F 93% 29.12 in 6.2 mi WNW 28.8 mph - N/A   Light Drizzle
2:33 PM 42.8 °F 32.5 °F 41.0 °F 93% 29.12 in 6.2 mi WNW 28.8 mph - N/A   Light Drizzle
2:55 PM 44.6 °F 35.1 °F 39.2 °F 81% 29.15 in 6.2 mi WNW 27.6 mph - N/A   Overcast
3:00 PM 44 °F - 40 °F 80% 29.17 in 8 mi WNW 31.3 mph - - Rain Rain
3:17 PM 44.6 °F 34.9 °F 39.2 °F 81% 29.18 in 6.2 mi WNW 28.8 mph - N/A   Mostly Cloudy
3:25 PM 44.6 °F 34.9 °F 39.2 °F 81% 29.18 in 6.2 mi WNW 28.8 mph - N/A   Overcast
3:37 PM 44.6 °F 35.1 °F 39.2 °F 81% 29.21 in 6.2 mi WNW 27.6 mph - N/A   Overcast
3:55 PM 44.6 °F 35.3 °F 41.0 °F 87% 29.21 in 6.2 mi WNW 26.5 mph - N/A   Mostly Cloudy
4:00 PM 45 °F - 40 °F 77% 29.24 in 7 mi WNW 24.6 mph - -   Partly Cloudy
4:00 PM 44.6 °F 35.5 °F 41.0 °F 87% 29.21 in 6.2 mi WNW 25.3 mph - N/A   Mostly Cloudy
4:04 PM 44.6 °F 35.7 °F 41.0 °F 87% 29.21 in 6.2 mi West 24.2 mph - N/A   Mostly Cloudy
4:08 PM 44.6 °F 35.5 °F 41.0 °F 87% 29.24 in 6.2 mi West 25.3 mph - N/A   Mostly Cloudy
4:12 PM 44.6 °F 35.3 °F 39.2 °F 81% 29.24 in 6.2 mi West 26.5 mph - N/A   Mostly Cloudy
4:16 PM 44.6 °F 35.3 °F 39.2 °F 81% 29.24 in 6.2 mi West 26.5 mph - N/A   Mostly Cloudy
4:25 PM 44.6 °F 35.3 °F 39.2 °F 81% 29.24 in 6.2 mi West 26.5 mph - N/A   Mostly Cloudy
4:29 PM 44.6 °F 35.3 °F 39.2 °F 81% 29.27 in 6.2 mi West 26.5 mph - N/A   Mostly Cloudy
4:37 PM 44.6 °F 35.3 °F 39.2 °F 81% 29.27 in 6.2 mi West 26.5 mph - N/A   Overcast
4:42 PM 44.6 °F 35.3 °F 41.0 °F 87% 29.27 in 6.2 mi West 26.5 mph - N/A   Mostly Cloudy
4:46 PM 44.6 °F 35.1 °F 41.0 °F 87% 29.27 in 6.2 mi West 27.6 mph - N/A   Mostly Cloudy
4:55 PM 44.6 °F 35.1 °F 41.0 °F 87% 29.27 in 6.2 mi West 27.6 mph - N/A   Mostly Cloudy
5:00 PM 45 °F - 41 °F 79% 29.31 in 6 mi West 29.1 mph - -   Mist
5:06 PM 44.6 °F 35.1 °F 41.0 °F 87% 29.30 in 5.6 mi West 27.6 mph - N/A   Mostly Cloudy
5:11 PM 44.6 °F 35.1 °F 41.0 °F 87% 29.30 in 5.6 mi West 27.6 mph - N/A   Mostly Cloudy
5:15 PM 44.6 °F 34.7 °F 41.0 °F 87% 29.30 in 5.6 mi West 29.9 mph - N/A   Mostly Cloudy
5:25 PM 44.6 °F 34.9 °F 39.2 °F 81% 29.33 in 6.2 mi West 28.8 mph - N/A   Overcast
5:29 PM 44.6 °F 34.7 °F 39.2 °F 81% 29.33 in 6.2 mi West 29.9 mph - N/A   Mostly Cloudy
5:49 PM 44.6 °F 35.1 °F 39.2 °F 81% 29.33 in 6.2 mi West 27.6 mph - N/A   Mostly Cloudy
5:55 PM 44.6 °F 34.7 °F 39.2 °F 81% 29.33 in 6.2 mi West 29.9 mph - N/A   Mostly Cloudy
6:00 PM 44 °F - 39 °F 76% 29.36 in 6 mi West 29.1 mph - -   Partly Cloudy
6:25 PM 44.6 °F 34.7 °F 39.2 °F 81% 29.36 in 6.2 mi West 29.9 mph - N/A   Overcast
6:51 PM 44.6 °F 35.5 °F 39.2 °F 81% 29.36 in 6.2 mi West 25.3 mph - N/A   Mostly Cloudy
6:55 PM 44.6 °F 35.7 °F 39.2 °F 81% 29.36 in 6.2 mi West 24.2 mph - N/A   Mostly Cloudy
6:59 PM 44.6 °F 35.5 °F 39.2 °F 81% 29.36 in 6.2 mi West 25.3 mph - N/A   Mostly Cloudy
7:00 PM 44 °F - 39 °F 76% 29.39 in 7 mi West 24.6 mph - -   Partly Cloudy
7:25 PM 44.6 °F 36.1 °F 39.2 °F 81% 29.39 in 6.2 mi WSW 21.9 mph - N/A   Mostly Cloudy
7:55 PM 44.6 °F 35.7 °F 39.2 °F 81% 29.39 in 6.2 mi WSW 24.2 mph - N/A   Overcast
8:00 PM 45 °F - 39 °F 74% 29.41 in 6 mi WSW 22.4 mph - -   Overcast
8:06 PM 44.6 °F 36.1 °F 39.2 °F 81% 29.39 in 4.3 mi WSW 21.9 mph - N/A   Overcast
8:18 PM 44.6 °F 35.7 °F 39.2 °F 81% 29.39 in 5.0 mi WSW 24.2 mph - N/A   Overcast
8:25 PM 44.6 °F 35.9 °F 39.2 °F 81% 29.39 in 5.0 mi WSW 23.0 mph - N/A   Mostly Cloudy
8:29 PM 44.6 °F 35.9 °F 39.2 °F 81% 29.39 in 4.3 mi WSW 23.0 mph - N/A   Scattered Clouds
8:42 PM 44.6 °F 36.1 °F 39.2 °F 81% 29.39 in 5.0 mi WSW 21.9 mph - N/A   Partly Cloudy
8:55 PM 44.6 °F 36.4 °F 39.2 °F 81% 29.39 in 5.6 mi WSW 20.7 mph - N/A   Mostly Cloudy
9:00 PM 44 °F - 39 °F 77% 29.41 in 5 mi WSW 20.1 mph - -   Mist
9:25 PM 42.8 °F 34.3 °F 39.2 °F 87% 29.39 in 6.2 mi SW 19.6 mph - N/A   Scattered Clouds
9:55 PM 42.8 °F 34.0 °F 39.2 °F 87% 29.42 in 6.2 mi SW 20.7 mph - N/A   Partly Cloudy
10:00 PM 44 °F - 39 °F 76% 29.42 in 9 mi SW 22.4 mph - -   Scattered Clouds
10:25 PM 42.8 °F 33.5 °F 39.2 °F 87% 29.42 in 6.2 mi SW 23.0 mph - N/A   Partly Cloudy
10:55 PM 42.8 °F 33.8 °F 39.2 °F 87% 29.42 in 6.2 mi SW 21.9 mph - N/A   Unknown
11:00 PM 43 °F - 38 °F 77% 29.42 in 12 mi SW 20.1 mph - -  
11:25 PM 42.8 °F 34.8 °F 37.4 °F 81% 29.42 in 6.2 mi SSW 17.3 mph - N/A   Partly Cloudy
11:55 PM 42.8 °F 34.8 °F 39.2 °F 87% 29.39 in 6.2 mi SSW 17.3 mph - N/A   Partly Cloudy